Regional Weather Roundup
Issued by NWS

Home | Current Version | Previous Version | Graphics & Text | Print | Product List | Glossary On
Versions: 1 2 3 4 5 6 7 8 9 10 11 12 13 14 15 16 17 18 19 20 21 22 23 24 25 26 27 28 29 30 31 32 33 34 35 36 37 38 39 40 41 42 43 44 45 46 47 48 49 50
231
ASUS43 KOAX 201202
RWRNE

WEATHER ROUNDUP FOR NEBRASKA
NATIONAL WEATHER SERVICE OMAHA NE
600 AM CST FRI JAN 20 2017

NOTES: SATELLITE DATA IS BEING USED TO AUGMENT CLOUD COVER ABOVE
       12000 FEET.
       "FAIR" INDICATES FEW OR NO CLOUDS BELOW 12,000 FEET WITH NO
       SIGNIFICANT WEATHER AND/OR OBSTRUCTIONS TO VISIBILITY.

  * THESE STATIONS DO NOT REPORT WEATHER SUCH AS RAIN...SNOW OR FOG.

NEZ001>004-019>022-054>056-201300-
NEBRASKA PANHANDLE

CITY           SKY/WX    TMP DP  RH WIND       PRES   REMARKS
SCOTTSBLUFF    CLEAR     26  21  81 NW7       29.44F WCI  18
6HR MIN TEMP:  24; 6HR MAX TEMP:  30;

ALLIANCE       CLOUDY    19  16  88 W6        29.42F WCI  11
6HR MIN TEMP:  16; 6HR MAX TEMP:  23;

CHADRON        CLOUDY    24  19  81 SW5       29.41F WCI  18
6HR MIN TEMP:  18; 6HR MAX TEMP:  27;

SIDNEY         CLOUDY    27  23  85 W9        29.44S WCI  18
6HR MIN TEMP:  24; 6HR MAX TEMP:  34;

$$

NEZ057>060-069>072-079>082-201300-
SOUTHWEST NEBRASKA

CITY           SKY/WX    TMP DP  RH WIND       PRES   REMARKS
NORTH PLATTE   CLOUDY    34  33  96 W6        29.49R WCI  29
6HR MIN TEMP:  34; 6HR MAX TEMP:  38;

IMPERIAL       FOG       28  27  96 E5        29.45F VSB 1/4 WCI  23
6HR MIN TEMP:  28; 6HR MAX TEMP:  33;

LEXINGTON      CLOUDY    35  34  96 CALM      29.49S FOG
MCCOOK         CLOUDY    33  33 100 NW5       29.48F FOG     WCI  29
6HR MIN TEMP:  33; 6HR MAX TEMP:  34;

OGALLALA       FOG       28  27  96 CALM      29.47R VSB 1/2
$$

NEZ005>010-023>029-035>040-094-201300-
NORTH CENTRAL NEBRASKA

CITY           SKY/WX    TMP DP  RH WIND       PRES   REMARKS
VALENTINE      CLOUDY    23  19  85 W8        29.38F WCI  14
6HR MIN TEMP:  19; 6HR MAX TEMP:  29;

AINSWORTH      CLEAR     28  27  94 SW9       29.39S WCI  20
BROKEN BOW     CLEAR     34  33  96 W7        29.46F WCI  28
6HR MIN TEMP:  32; 6HR MAX TEMP:  39;

O`NEILL        CLEAR     33  33  99 S5        29.42S FOG     WCI  28
ORD            MOCLDY    34  32  92 SW6       29.45S FOG     WCI  29
6HR MIN TEMP:  32; 6HR MAX TEMP:  40;

THEDFORD       PTCLDY    30  29  98 SW9       29.43F WCI  21
$$

NEZ041-046>049-061>064-073>077-083>087-201300-
SOUTH CENTRAL NEBRASKA

CITY           SKY/WX    TMP DP  RH WIND       PRES   REMARKS
GRAND ISLAND   FOG       36  36 100 S7        29.51S VSB 1/2 WCI  30
6HR MIN TEMP:  35; 6HR MAX TEMP:  38;

AURORA         FOG       37  37 100 S7        29.52R VSB 1/2 WCI  31
HASTINGS       FOG       37  36  96 S6        29.52R VSB 3/4 WCI  32
6HR MIN TEMP:  36; 6HR MAX TEMP:  38;

HEBRON         FOG       38  38  99 CALM      29.54S VSB 3/4
HOLDREGE       FOG       35  34  97 CALM      29.50S VSB 1/4
KEARNEY *      CLOUDY    36  34  93 S5        29.51R VSB 1/4 WCI  32
YORK           FOG       37  37 100 S8        29.53R VSB 1/4 WCI  31
$$

NEZ011>018-030>034-042>045-201300-
NORTHEAST NEBRASKA

CITY           SKY/WX    TMP DP  RH WIND       PRES   REMARKS
NORFOLK        FOG       37  37 100 SE6       29.47R VSB 1/2 WCI  32
6HR MIN TEMP:  37; 6HR MAX TEMP:  38;

ALBION         SNOW     N/A N/A N/A S8        29.49R VSB 1/4
BLAIR          CLOUDY    39  39  98 E7        29.53F FOG     WCI  34
FREMONT        CLOUDY    38  38 100 E3        29.52F FOG
TEKAMAH        FOG       35  34  96 N3        29.54F VSB 1/2
6HR MIN TEMP:  35; 6HR MAX TEMP:  37;

WAYNE          CLOUDY    37  37  98 SE10      29.49F FOG     WCI  30
$$

NEZ050>053-065>068-078-088>093-201300-
SOUTHEAST NEBRASKA

CITY           SKY/WX    TMP DP  RH WIND       PRES   REMARKS
LINCOLN        FOG       37  37 100 S3        29.55S VSB 1/2
6HR MIN TEMP:  37; 6HR MAX TEMP:  41;

OMAHA EPPLEY   CLOUDY    39  36  89 E10       29.54F WCI  32
6HR MIN TEMP:  37; 6HR MAX TEMP:  40; 6HR PCP: TRACE;

BEATRICE       CLOUDY    40  40 100 S3        29.56R FOG
FALLS CITY     FOG       40  40 100 SE3       29.57R VSB 1/4
6HR MIN TEMP:  39; 6HR MAX TEMP:  42;

NEBRASKA CITY  FOG       38  38 100 CALM      29.56R VSB 1/4
PLATTSMOUTH    FOG       38  36  93 E5        29.56R VSB 1/2 WCI  35
$$

NEZ044-045-051>053-067-201300-
OMAHA AREA

CITY           SKY/WX    TMP DP  RH WIND       PRES   REMARKS
OMAHA EPPLEY   CLOUDY    39  36  89 E10       29.54F WCI  32
6HR MIN TEMP:  37; 6HR MAX TEMP:  40; 6HR PCP: TRACE;

BLAIR          CLOUDY    39  39  98 E7        29.53F FOG     WCI  34
FREMONT        CLOUDY    38  38 100 E3        29.52F FOG
MILLARD        CLOUDY    42  41  97 SE3       29.54F FOG
PLATTSMOUTH    FOG       38  36  93 E5        29.56R VSB 1/2 WCI  35
WAHOO          FOG       36  35  96 S3        29.54R VSB 1/4
$$




USA.gov is the U.S. government's official web portal to all federal, state and local government web resources and services.